Tracking 31027 objects as of 19-Jul-2025
HD Live streaming from Space Station
objects crossing your sky now

DELTA 1 DEB

Track DELTA 1 DEB now!
10-day predictions


NORAD ID: 21433
Int'l Code: 1975-052DR
Perigee: 1,035.2 km
Apogee: 1,122.6 km
Inclination: 99.7 °
Period: 106.7 minutes
Semi major axis: 7449 km
RCS: 0.129 m2 (medium)
Launch date: June 12, 1975
Source: United States (US)
Launch site: AIR FORCE WESTERN TEST RANGE (AFWTR)

Note: This is SATELLITE DEBRIS
Your satellite tracking list
FLOCK 3P 17
Track 1 satellite(s)




NASA's NSSDC Master Catalog

Two Line Element Set (TLE):
1 21433U 75052DR  25199.40424249  .00000156  00000-0  31071-3 0  9994
2 21433  99.7038   4.8167 0058656 351.7293  74.5923 13.50127649683068
Source of the keplerian elements: AFSPC